Time,TemperatureF,DewpointF,PressureIn,WindDirection,WindDirectionDegrees,WindSpeedMPH,WindSpeedGustMPH,Humidity,HourlyPrecipIn,Conditions,Clouds,dailyrainin,SoftwareType,DateUTC
2013-02-20 00:00:00,-23.0,-27.6,29.67,South,180,0.0,0.0,78,0.00,,,0.00,LWC V2.00 B2112,2013-02-20 09:00:00,
2013-02-20 00:05:00,-23.3,-27.9,29.67,South,180,0.0,0.0,78,0.00,,,0.00,LWC V2.00 B2112,2013-02-20 09:05:00,
2013-02-20 00:10:00,-23.4,-28.0,29.67,South,180,0.0,0.0,78,0.00,,,0.00,LWC V2.00 B2112,2013-02-20 09:10:00,
2013-02-20 00:15:00,-23.5,-28.1,29.67,South,180,0.0,0.0,78,0.00,,,0.00,LWC V2.00 B2112,2013-02-20 09:15:00,
2013-02-20 00:20:00,-23.5,-28.1,29.66,South,180,0.0,0.0,78,0.00,,,0.00,LWC V2.00 B2112,2013-02-20 09:20:00,
2013-02-20 00:25:00,-23.4,-28.0,29.66,South,180,0.0,0.0,78,0.00,,,0.00,LWC V2.00 B2112,2013-02-20 09:25:00,
2013-02-20 00:30:00,-23.5,-28.1,29.66,South,180,0.0,0.0,78,0.00,,,0.00,LWC V2.00 B2112,2013-02-20 09:30:00,
2013-02-20 00:35:00,-23.8,-28.4,29.66,South,180,0.0,0.0,78,0.00,,,0.00,LWC V2.00 B2112,2013-02-20 09:35:00,
2013-02-20 00:40:00,-24.1,-28.9,29.66,South,180,0.0,0.0,77,0.00,,,0.00,LWC V2.00 B2112,2013-02-20 09:40:00,
2013-02-20 00:45:00,-24.3,-29.1,29.65,South,180,0.0,0.0,77,0.00,,,0.00,LWC V2.00 B2112,2013-02-20 09:45:00,
2013-02-20 00:50:00,-24.3,-29.1,29.65,South,180,0.0,0.0,77,0.00,,,0.00,LWC V2.00 B2112,2013-02-20 09:50:00,
2013-02-20 00:55:00,-24.3,-29.1,29.65,South,180,0.0,0.0,77,0.00,,,0.00,LWC V2.00 B2112,2013-02-20 09:55:00,
2013-02-20 01:00:00,-24.4,-29.2,29.65,South,180,0.0,0.0,77,0.00,,,0.00,LWC V2.00 B2112,2013-02-20 10:00:00,
2013-02-20 01:05:00,-24.5,-29.3,29.65,South,180,0.0,0.0,77,0.00,,,0.00,LWC V2.00 B2112,2013-02-20 10:05:00,
2013-02-20 01:10:00,-24.4,-29.2,29.64,South,180,0.0,0.0,77,0.00,,,0.00,LWC V2.00 B2112,2013-02-20 10:10:00,
2013-02-20 01:15:00,-24.6,-29.4,29.64,South,180,0.0,0.0,77,0.00,,,0.00,LWC V2.00 B2112,2013-02-20 10:15:00,
2013-02-20 01:20:00,-24.7,-29.5,29.64,South,180,0.0,0.0,77,0.00,,,0.00,LWC V2.00 B2112,2013-02-20 10:20:00,
2013-02-20 01:25:00,-24.7,-29.5,29.64,South,180,0.0,0.0,77,0.00,,,0.00,LWC V2.00 B2112,2013-02-20 10:25:00,
2013-02-20 01:30:00,-24.9,-29.7,29.64,South,180,0.0,0.0,77,0.00,,,0.00,LWC V2.00 B2112,2013-02-20 10:30:00,
2013-02-20 01:35:00,-25.0,-29.8,29.64,South,180,0.0,0.0,77,0.00,,,0.00,LWC V2.00 B2112,2013-02-20 10:35:00,
2013-02-20 01:40:00,-24.9,-29.7,29.64,South,180,0.0,0.0,77,0.00,,,0.00,LWC V2.00 B2112,2013-02-20 10:40:00,
2013-02-20 01:45:00,-24.7,-29.5,29.64,South,180,0.0,0.0,77,0.00,,,0.00,LWC V2.00 B2112,2013-02-20 10:45:00,
2013-02-20 01:50:00,-24.8,-29.6,29.64,South,180,0.0,0.0,77,0.00,,,0.00,LWC V2.00 B2112,2013-02-20 10:50:00,
2013-02-20 01:55:00,-24.8,-29.6,29.63,South,180,0.0,0.0,77,0.00,,,0.00,LWC V2.00 B2112,2013-02-20 10:55:00,
2013-02-20 02:00:00,-25.0,-29.8,29.63,South,180,0.0,0.0,77,0.00,,,0.00,LWC V2.00 B2112,2013-02-20 11:00:00,
2013-02-20 02:05:00,-25.2,-30.0,29.63,South,180,0.0,0.0,77,0.00,,,0.00,LWC V2.00 B2112,2013-02-20 11:05:00,
2013-02-20 02:10:00,-25.3,-30.1,29.63,South,180,0.0,0.0,77,0.00,,,0.00,LWC V2.00 B2112,2013-02-20 11:10:00,
2013-02-20 02:15:00,-25.5,-30.3,29.62,South,180,0.0,0.0,77,0.00,,,0.00,LWC V2.00 B2112,2013-02-20 11:15:00,
2013-02-20 02:20:00,-25.6,-30.4,29.62,South,180,0.0,0.0,77,0.00,,,0.00,LWC V2.00 B2112,2013-02-20 11:20:00,
2013-02-20 02:25:00,-25.8,-30.6,29.62,South,180,0.0,0.0,77,0.00,,,0.00,LWC V2.00 B2112,2013-02-20 11:25:00,
2013-02-20 02:30:00,-26.0,-30.8,29.61,South,180,0.0,0.0,77,0.00,,,0.00,LWC V2.00 B2112,2013-02-20 11:30:00,
2013-02-20 02:35:00,-25.9,-30.7,29.61,South,180,0.0,0.0,77,0.00,,,0.00,LWC V2.00 B2112,2013-02-20 11:35:00,
2013-02-20 02:40:00,-25.8,-30.6,29.61,South,180,0.0,0.0,77,0.00,,,0.00,LWC V2.00 B2112,2013-02-20 11:40:00,
2013-02-20 02:45:00,-25.8,-30.6,29.61,South,180,0.0,0.0,77,0.00,,,0.00,LWC V2.00 B2112,2013-02-20 11:45:00,
2013-02-20 02:50:00,-25.9,-30.7,29.61,South,180,0.0,0.0,77,0.00,,,0.00,LWC V2.00 B2112,2013-02-20 11:50:00,
2013-02-20 02:55:00,-25.9,-30.7,29.61,South,180,0.0,0.0,77,0.00,,,0.00,LWC V2.00 B2112,2013-02-20 11:55:00,
2013-02-20 03:00:00,-25.8,-30.6,29.60,South,180,0.0,0.0,77,0.00,,,0.00,LWC V2.00 B2112,2013-02-20 12:00:00,
2013-02-20 03:05:00,-25.7,-30.5,29.60,South,180,0.0,0.0,77,0.00,,,0.00,LWC V2.00 B2112,2013-02-20 12:05:00,
2013-02-20 03:10:00,-25.6,-30.4,29.60,South,180,0.0,0.0,77,0.00,,,0.00,LWC V2.00 B2112,2013-02-20 12:10:00,
2013-02-20 03:15:00,-25.3,-30.1,29.60,South,180,0.0,0.0,77,0.00,,,0.00,LWC V2.00 B2112,2013-02-20 12:15:00,
2013-02-20 03:20:00,-25.3,-30.1,29.60,South,180,0.0,0.0,77,0.00,,,0.00,LWC V2.00 B2112,2013-02-20 12:20:00,
2013-02-20 03:25:00,-25.1,-29.9,29.60,South,180,0.0,0.0,77,0.00,,,0.00,LWC V2.00 B2112,2013-02-20 12:25:00,
2013-02-20 03:30:00,-25.2,-30.0,29.60,South,180,0.0,0.0,77,0.00,,,0.00,LWC V2.00 B2112,2013-02-20 12:30:00,
2013-02-20 03:35:00,-25.1,-29.9,29.60,South,180,0.0,0.0,77,0.00,,,0.00,LWC V2.00 B2112,2013-02-20 12:35:00,
2013-02-20 03:40:00,-25.2,-30.0,29.59,South,180,0.0,0.0,77,0.00,,,0.00,LWC V2.00 B2112,2013-02-20 12:40:00,
2013-02-20 03:45:00,-25.2,-30.0,29.59,South,180,0.0,0.0,77,0.00,,,0.00,LWC V2.00 B2112,2013-02-20 12:45:00,
2013-02-20 03:50:00,-25.3,-30.1,29.59,South,180,0.0,0.0,77,0.00,,,0.00,LWC V2.00 B2112,2013-02-20 12:50:00,
2013-02-20 03:55:00,-25.4,-30.2,29.59,South,180,0.0,0.0,77,0.00,,,0.00,LWC V2.00 B2112,2013-02-20 12:55:00,
2013-02-20 04:00:00,-25.6,-30.4,29.59,South,180,0.0,0.0,77,0.00,,,0.00,LWC V2.00 B2112,2013-02-20 13:00:00,
2013-02-20 04:05:00,-25.6,-30.4,29.59,South,180,0.0,0.0,77,0.00,,,0.00,LWC V2.00 B2112,2013-02-20 13:05:00,
2013-02-20 04:10:00,-25.8,-30.6,29.58,South,180,0.0,0.0,77,0.00,,,0.00,LWC V2.00 B2112,2013-02-20 13:10:00,
2013-02-20 04:15:00,-25.8,-30.6,29.58,South,180,0.0,0.0,77,0.00,,,0.00,LWC V2.00 B2112,2013-02-20 13:15:00,
2013-02-20 04:20:00,-25.9,-30.7,29.58,South,180,0.0,0.0,77,0.00,,,0.00,LWC V2.00 B2112,2013-02-20 13:20:00,
2013-02-20 04:25:00,-25.9,-30.7,29.58,South,180,0.0,0.0,77,0.00,,,0.00,LWC V2.00 B2112,2013-02-20 13:25:00,
2013-02-20 04:30:00,-25.9,-30.7,29.58,South,180,0.0,0.0,77,0.00,,,0.00,LWC V2.00 B2112,2013-02-20 13:30:00,
2013-02-20 04:35:00,-25.9,-30.7,29.58,South,180,0.0,0.0,77,0.00,,,0.00,LWC V2.00 B2112,2013-02-20 13:35:00,
2013-02-20 04:40:00,-25.9,-30.7,29.58,South,180,0.0,0.0,77,0.00,,,0.00,LWC V2.00 B2112,2013-02-20 13:40:00,
2013-02-20 04:45:00,-25.9,-30.7,29.58,South,180,0.0,0.0,77,0.00,,,0.00,LWC V2.00 B2112,2013-02-20 13:45:00,
2013-02-20 04:50:00,-26.0,-30.8,29.58,South,180,0.0,0.0,77,0.00,,,0.00,LWC V2.00 B2112,2013-02-20 13:50:00,
2013-02-20 04:55:00,-26.0,-30.8,29.57,South,180,0.0,0.0,77,0.00,,,0.00,LWC V2.00 B2112,2013-02-20 13:55:00,
2013-02-20 05:00:00,-26.1,-30.9,29.57,South,180,0.0,0.0,77,0.00,,,0.00,LWC V2.00 B2112,2013-02-20 14:00:00,
2013-02-20 05:05:00,-26.2,-31.0,29.57,South,180,0.0,0.0,77,0.00,,,0.00,LWC V2.00 B2112,2013-02-20 14:05:00,
2013-02-20 05:10:00,-26.2,-31.0,29.57,South,180,0.0,0.0,77,0.00,,,0.00,LWC V2.00 B2112,2013-02-20 14:10:00,
2013-02-20 05:15:00,-26.1,-30.9,29.57,South,180,0.0,0.0,77,0.00,,,0.00,LWC V2.00 B2112,2013-02-20 14:15:00,
2013-02-20 05:20:00,-26.1,-30.9,29.56,South,180,0.0,0.0,77,0.00,,,0.00,LWC V2.00 B2112,2013-02-20 14:20:00,
2013-02-20 05:25:00,-26.0,-30.8,29.56,South,180,0.0,0.0,77,0.00,,,0.00,LWC V2.00 B2112,2013-02-20 14:25:00,
2013-02-20 05:30:00,-26.1,-30.9,29.56,South,180,0.0,0.0,77,0.00,,,0.00,LWC V2.00 B2112,2013-02-20 14:30:00,
2013-02-20 05:35:00,-26.1,-30.9,29.56,South,180,0.0,0.0,77,0.00,,,0.00,LWC V2.00 B2112,2013-02-20 14:35:00,
2013-02-20 05:40:00,-26.1,-30.9,29.56,South,180,0.0,0.0,77,0.00,,,0.00,LWC V2.00 B2112,2013-02-20 14:40:00,
2013-02-20 05:45:00,-26.2,-31.0,29.56,South,180,0.0,0.0,77,0.00,,,0.00,LWC V2.00 B2112,2013-02-20 14:45:00,
2013-02-20 05:50:00,-26.2,-31.0,29.56,South,180,0.0,0.0,77,0.00,,,0.00,LWC V2.00 B2112,2013-02-20 14:50:00,
2013-02-20 05:55:00,-26.0,-30.8,29.55,South,180,0.0,0.0,77,0.00,,,0.00,LWC V2.00 B2112,2013-02-20 14:55:00,
2013-02-20 06:00:00,-25.7,-30.5,29.55,South,180,0.0,0.0,77,0.00,,,0.00,LWC V2.00 B2112,2013-02-20 15:00:00,
2013-02-20 06:05:00,-25.8,-30.6,29.55,South,180,0.0,0.0,77,0.00,,,0.00,LWC V2.00 B2112,2013-02-20 15:05:00,
2013-02-20 06:10:00,-25.9,-30.7,29.55,South,180,0.0,0.0,77,0.00,,,0.00,LWC V2.00 B2112,2013-02-20 15:10:00,
2013-02-20 06:15:00,-25.8,-30.6,29.55,South,180,0.0,0.0,77,0.00,,,0.00,LWC V2.00 B2112,2013-02-20 15:15:00,
2013-02-20 06:20:00,-25.7,-30.5,29.55,South,180,0.0,0.0,77,0.00,,,0.00,LWC V2.00 B2112,2013-02-20 15:20:00,
2013-02-20 06:25:00,-26.0,-30.8,29.55,South,180,0.0,0.0,77,0.00,,,0.00,LWC V2.00 B2112,2013-02-20 15:25:00,
2013-02-20 06:30:00,-26.1,-30.9,29.55,South,180,0.0,0.0,77,0.00,,,0.00,LWC V2.00 B2112,2013-02-20 15:30:00,
2013-02-20 06:35:00,-26.2,-31.0,29.55,South,180,0.0,0.0,77,0.00,,,0.00,LWC V2.00 B2112,2013-02-20 15:35:00,
2013-02-20 06:40:00,-26.2,-31.0,29.55,South,180,0.0,0.0,77,0.00,,,0.00,LWC V2.00 B2112,2013-02-20 15:40:00,
2013-02-20 06:45:00,-26.3,-31.1,29.55,South,180,0.0,0.0,77,0.00,,,0.00,LWC V2.00 B2112,2013-02-20 15:45:00,
2013-02-20 06:50:00,-26.2,-31.0,29.55,South,180,0.0,0.0,77,0.00,,,0.00,LWC V2.00 B2112,2013-02-20 15:50:00,
2013-02-20 06:55:00,-26.1,-30.9,29.54,South,180,0.0,0.0,77,0.00,,,0.00,LWC V2.00 B2112,2013-02-20 15:55:00,
2013-02-20 07:00:00,-26.4,-31.2,29.55,South,180,0.0,0.0,77,0.00,,,0.00,LWC V2.00 B2112,2013-02-20 16:00:00,
2013-02-20 07:05:00,-26.6,-31.6,29.54,South,180,0.0,0.0,76,0.00,,,0.00,LWC V2.00 B2112,2013-02-20 16:05:00,
2013-02-20 07:10:00,-26.7,-31.7,29.54,South,180,0.0,0.0,76,0.00,,,0.00,LWC V2.00 B2112,2013-02-20 16:10:00,
2013-02-20 07:15:00,-26.6,-31.6,29.54,South,180,0.0,0.0,76,0.00,,,0.00,LWC V2.00 B2112,2013-02-20 16:15:00,
2013-02-20 07:20:00,-26.5,-31.3,29.54,South,180,0.0,0.0,77,0.00,,,0.00,LWC V2.00 B2112,2013-02-20 16:20:00,
2013-02-20 07:25:00,-26.3,-31.1,29.53,South,180,0.0,0.0,77,0.00,,,0.00,LWC V2.00 B2112,2013-02-20 16:25:00,
2013-02-20 07:30:00,-26.0,-30.8,29.53,South,180,0.0,0.0,77,0.00,,,0.00,LWC V2.00 B2112,2013-02-20 16:30:00,
2013-02-20 07:35:00,-25.9,-30.7,29.53,South,180,0.0,0.0,77,0.00,,,0.00,LWC V2.00 B2112,2013-02-20 16:35:00,
2013-02-20 07:40:00,-25.8,-30.6,29.53,South,180,0.0,0.0,77,0.00,,,0.00,LWC V2.00 B2112,2013-02-20 16:40:00,
2013-02-20 07:45:00,-25.6,-30.4,29.53,South,180,0.0,0.0,77,0.00,,,0.00,LWC V2.00 B2112,2013-02-20 16:45:00,
2013-02-20 07:50:00,-25.5,-30.3,29.53,South,180,0.0,0.0,77,0.00,,,0.00,LWC V2.00 B2112,2013-02-20 16:50:00,
2013-02-20 07:55:00,-25.3,-30.1,29.53,South,180,0.0,0.0,77,0.00,,,0.00,LWC V2.00 B2112,2013-02-20 16:55:00,
2013-02-20 08:00:00,-24.9,-29.7,29.53,South,180,0.0,0.0,77,0.00,,,0.00,LWC V2.00 B2112,2013-02-20 17:00:00,
2013-02-20 08:05:00,-24.8,-29.6,29.53,South,180,0.0,0.0,77,0.00,,,0.00,LWC V2.00 B2112,2013-02-20 17:05:00,
2013-02-20 08:10:00,-24.7,-29.5,29.52,South,180,0.0,0.0,77,0.00,,,0.00,LWC V2.00 B2112,2013-02-20 17:10:00,
2013-02-20 08:15:00,-24.8,-29.6,29.52,South,180,0.0,0.0,77,0.00,,,0.00,LWC V2.00 B2112,2013-02-20 17:15:00,
2013-02-20 08:20:00,-24.9,-29.7,29.52,South,180,0.0,0.0,77,0.00,,,0.00,LWC V2.00 B2112,2013-02-20 17:20:00,
2013-02-20 08:25:00,-25.0,-29.8,29.52,South,180,0.0,0.0,77,0.00,,,0.00,LWC V2.00 B2112,2013-02-20 17:25:00,
2013-02-20 08:30:00,-24.8,-29.6,29.52,South,180,0.0,0.0,77,0.00,,,0.00,LWC V2.00 B2112,2013-02-20 17:30:00,
2013-02-20 08:35:00,-24.4,-29.2,29.52,South,180,0.0,0.0,77,0.00,,,0.00,LWC V2.00 B2112,2013-02-20 17:35:00,
2013-02-20 08:40:00,-24.1,-28.9,29.52,South,180,0.0,0.0,77,0.00,,,0.00,LWC V2.00 B2112,2013-02-20 17:40:00,
2013-02-20 08:45:00,-23.8,-28.4,29.52,South,180,0.0,0.0,78,0.00,,,0.00,LWC V2.00 B2112,2013-02-20 17:45:00,
2013-02-20 08:50:00,-23.4,-28.0,29.52,South,180,0.0,0.0,78,0.00,,,0.00,LWC V2.00 B2112,2013-02-20 17:50:00,
2013-02-20 08:55:00,-23.0,-27.6,29.52,South,180,0.0,0.0,78,0.00,,,0.00,LWC V2.00 B2112,2013-02-20 17:55:00,
2013-02-20 09:00:00,-22.9,-27.5,29.52,South,180,0.0,0.0,78,0.00,,,0.00,LWC V2.00 B2112,2013-02-20 18:00:00,
2013-02-20 09:05:00,-22.5,-27.1,29.52,South,180,0.0,0.0,78,0.00,,,0.00,LWC V2.00 B2112,2013-02-20 18:05:00,
2013-02-20 09:10:00,-22.1,-26.7,29.52,South,180,0.0,0.0,78,0.00,,,0.00,LWC V2.00 B2112,2013-02-20 18:10:00,
2013-02-20 09:15:00,-22.0,-26.6,29.51,South,180,0.0,0.0,78,0.00,,,0.00,LWC V2.00 B2112,2013-02-20 18:15:00,
2013-02-20 09:20:00,-21.7,-26.3,29.51,South,180,0.0,0.0,78,0.00,,,0.00,LWC V2.00 B2112,2013-02-20 18:20:00,
2013-02-20 09:25:00,-21.0,-25.4,29.51,South,180,0.0,0.0,79,0.00,,,0.00,LWC V2.00 B2112,2013-02-20 18:25:00,
2013-02-20 09:30:00,-20.3,-24.7,29.51,South,180,0.0,0.0,79,0.00,,,0.00,LWC V2.00 B2112,2013-02-20 18:30:00,
2013-02-20 09:35:00,-19.6,-24.1,29.51,South,180,0.0,0.0,79,0.00,,,0.00,LWC V2.00 B2112,2013-02-20 18:35:00,
2013-02-20 09:40:00,-18.9,-23.4,29.51,South,180,0.0,0.0,79,0.00,,,0.00,LWC V2.00 B2112,2013-02-20 18:40:00,
2013-02-20 09:45:00,-18.1,-22.4,29.51,South,180,0.0,0.0,80,0.00,,,0.00,LWC V2.00 B2112,2013-02-20 18:45:00,
2013-02-20 09:50:00,-17.5,-21.8,29.51,South,180,0.0,0.0,80,0.00,,,0.00,LWC V2.00 B2112,2013-02-20 18:50:00,
2013-02-20 09:55:00,-17.1,-21.4,29.51,South,180,0.0,0.0,80,0.00,,,0.00,LWC V2.00 B2112,2013-02-20 18:55:00,
2013-02-20 10:00:00,-16.5,-20.8,29.51,South,180,0.0,0.0,80,0.00,,,0.00,LWC V2.00 B2112,2013-02-20 19:00:00,
2013-02-20 10:05:00,-15.7,-19.8,29.51,South,180,0.0,0.0,81,0.00,,,0.00,LWC V2.00 B2112,2013-02-20 19:05:00,
2013-02-20 10:10:00,-15.1,-19.2,29.51,South,180,0.0,0.0,81,0.00,,,0.00,LWC V2.00 B2112,2013-02-20 19:10:00,
2013-02-20 10:15:00,-14.4,-18.5,29.51,South,180,0.0,0.0,81,0.00,,,0.00,LWC V2.00 B2112,2013-02-20 19:15:00,
2013-02-20 10:20:00,-13.8,-17.9,29.50,South,180,0.0,0.0,81,0.00,,,0.00,LWC V2.00 B2112,2013-02-20 19:20:00,
2013-02-20 10:25:00,-13.2,-17.3,29.50,South,180,0.0,0.0,81,0.00,,,0.00,LWC V2.00 B2112,2013-02-20 19:25:00,
2013-02-20 10:30:00,-12.5,-16.4,29.50,South,180,0.0,0.0,82,0.00,,,0.00,LWC V2.00 B2112,2013-02-20 19:30:00,
2013-02-20 10:35:00,-11.8,-15.7,29.50,South,180,0.0,0.0,82,0.00,,,0.00,LWC V2.00 B2112,2013-02-20 19:35:00,
2013-02-20 10:40:00,-11.1,-15.0,29.50,South,180,0.0,0.0,82,0.00,,,0.00,LWC V2.00 B2112,2013-02-20 19:40:00,
2013-02-20 10:45:00,-10.5,-14.4,29.50,South,180,0.0,0.0,82,0.00,,,0.00,LWC V2.00 B2112,2013-02-20 19:45:00,
2013-02-20 10:50:00,-9.9,-13.9,29.50,South,180,0.0,0.0,82,0.00,,,0.00,LWC V2.00 B2112,2013-02-20 19:50:00,
2013-02-20 10:55:00,-9.4,-13.1,29.50,South,180,0.0,0.0,83,0.00,,,0.00,LWC V2.00 B2112,2013-02-20 19:55:00,
2013-02-20 11:00:00,-8.8,-12.5,29.50,South,180,0.0,0.0,83,0.00,,,0.00,LWC V2.00 B2112,2013-02-20 20:00:00,
2013-02-20 11:05:00,-8.2,-12.0,29.50,South,180,0.0,0.0,83,0.00,,,0.00,LWC V2.00 B2112,2013-02-20 20:05:00,
2013-02-20 11:10:00,-7.5,-11.3,29.50,South,180,0.0,0.0,83,0.00,,,0.00,LWC V2.00 B2112,2013-02-20 20:10:00,
2013-02-20 11:15:00,-6.9,-10.7,29.50,South,180,0.0,0.0,83,0.00,,,0.00,LWC V2.00 B2112,2013-02-20 20:15:00,
2013-02-20 11:20:00,-6.4,-10.2,29.50,South,180,0.0,0.0,83,0.00,,,0.00,LWC V2.00 B2112,2013-02-20 20:20:00,
2013-02-20 11:25:00,-5.7,-9.3,29.50,South,180,0.0,0.0,84,0.00,,,0.00,LWC V2.00 B2112,2013-02-20 20:25:00,
2013-02-20 11:30:00,-5.1,-8.7,29.50,South,180,0.0,0.0,84,0.00,,,0.00,LWC V2.00 B2112,2013-02-20 20:30:00,
2013-02-20 11:35:00,-4.5,-8.1,29.50,South,180,0.0,0.0,84,0.00,,,0.00,LWC V2.00 B2112,2013-02-20 20:35:00,
2013-02-20 11:40:00,-3.8,-7.4,29.49,South,180,0.0,0.0,84,0.00,,,0.00,LWC V2.00 B2112,2013-02-20 20:40:00,
2013-02-20 11:45:00,-3.2,-6.8,29.49,South,180,0.0,0.0,84,0.00,,,0.00,LWC V2.00 B2112,2013-02-20 20:45:00,
2013-02-20 11:50:00,-2.6,-6.2,29.49,South,180,0.0,0.0,84,0.00,,,0.00,LWC V2.00 B2112,2013-02-20 20:50:00,
2013-02-20 11:55:00,-2.0,-5.6,29.49,South,180,0.0,0.0,84,0.00,,,0.00,LWC V2.00 B2112,2013-02-20 20:55:00,
2013-02-20 12:00:00,-1.5,-5.1,29.49,South,180,0.0,0.0,84,0.00,,,0.00,LWC V2.00 B2112,2013-02-20 21:00:00,
2013-02-20 12:05:00,-0.9,-4.8,29.49,South,180,0.0,0.0,83,0.00,,,0.00,LWC V2.00 B2112,2013-02-20 21:05:00,
2013-02-20 12:10:00,-0.4,-4.3,29.49,South,180,0.0,0.0,83,0.00,,,0.00,LWC V2.00 B2112,2013-02-20 21:10:00,
2013-02-20 12:15:00,0.1,-4.1,29.49,South,180,0.0,0.0,82,0.00,,,0.00,LWC V2.00 B2112,2013-02-20 21:15:00,
2013-02-20 12:20:00,0.8,-3.4,29.49,South,180,0.0,0.0,82,0.00,,,0.00,LWC V2.00 B2112,2013-02-20 21:20:00,
2013-02-20 12:26:00,1.1,-3.3,29.49,South,180,0.0,0.0,81,0.00,,,0.00,LWC V2.00 B2112,2013-02-20 21:26:00,
2013-02-20 12:31:00,1.6,-3.1,29.49,South,180,0.0,0.0,80,0.00,,,0.00,LWC V2.00 B2112,2013-02-20 21:31:00,
2013-02-20 12:36:00,2.3,-2.7,29.48,South,180,0.0,0.0,79,0.00,,,0.00,LWC V2.00 B2112,2013-02-20 21:36:00,
2013-02-20 12:41:00,2.8,-2.5,29.48,South,180,0.0,0.0,78,0.00,,,0.00,LWC V2.00 B2112,2013-02-20 21:41:00,
2013-02-20 12:46:00,3.3,-2.3,29.48,South,180,0.0,0.0,77,0.00,,,0.00,LWC V2.00 B2112,2013-02-20 21:46:00,
2013-02-20 12:51:00,3.8,-2.0,29.48,South,180,0.0,0.0,76,0.00,,,0.00,LWC V2.00 B2112,2013-02-20 21:51:00,
2013-02-20 12:56:00,4.4,-1.7,29.48,South,180,0.0,0.0,75,0.00,,,0.00,LWC V2.00 B2112,2013-02-20 21:56:00,
2013-02-20 13:01:00,5.0,-1.4,29.47,South,180,0.0,0.0,74,0.00,,,0.00,LWC V2.00 B2112,2013-02-20 22:01:00,
2013-02-20 13:06:00,5.4,-1.3,29.47,South,180,0.0,0.0,73,0.00,,,0.00,LWC V2.00 B2112,2013-02-20 22:06:00,
2013-02-20 13:10:00,5.3,-1.7,29.47,South,180,0.0,0.0,72,0.00,,,0.00,LWC V2.00 B2112,2013-02-20 22:10:00,
2013-02-20 13:15:00,5.1,-1.9,29.47,South,180,0.0,0.0,72,0.00,,,0.00,LWC V2.00 B2112,2013-02-20 22:15:00,
2013-02-20 13:20:00,4.9,-2.1,29.47,South,180,0.0,0.0,72,0.00,,,0.00,LWC V2.00 B2112,2013-02-20 22:20:00,
2013-02-20 13:25:00,4.6,-2.4,29.46,South,180,0.0,0.0,72,0.00,,,0.00,LWC V2.00 B2112,2013-02-20 22:25:00,
2013-02-20 13:30:00,4.3,-2.7,29.46,South,180,0.0,0.0,72,0.00,,,0.00,LWC V2.00 B2112,2013-02-20 22:30:00,
2013-02-20 13:35:00,4.3,-2.4,29.46,South,180,0.0,0.0,73,0.00,,,0.00,LWC V2.00 B2112,2013-02-20 22:35:00,
2013-02-20 13:40:00,4.3,-2.4,29.46,South,180,0.0,0.0,73,0.00,,,0.00,LWC V2.00 B2112,2013-02-20 22:40:00,
2013-02-20 13:46:00,4.2,-2.2,29.46,South,180,0.0,0.0,74,0.00,,,0.00,LWC V2.00 B2112,2013-02-20 22:46:00,
2013-02-20 13:51:00,4.1,-2.3,29.46,South,180,0.0,0.0,74,0.00,,,0.00,LWC V2.00 B2112,2013-02-20 22:51:00,
2013-02-20 13:56:00,4.2,-2.2,29.45,South,180,0.0,0.0,74,0.00,,,0.00,LWC V2.00 B2112,2013-02-20 22:56:00,
2013-02-20 14:01:00,4.1,-2.3,29.45,South,180,0.0,0.0,74,0.00,,,0.00,LWC V2.00 B2112,2013-02-20 23:01:00,
2013-02-20 14:06:00,4.1,-2.3,29.45,South,180,0.0,0.0,74,0.00,,,0.00,LWC V2.00 B2112,2013-02-20 23:06:00,
2013-02-20 14:11:00,4.1,-2.3,29.45,South,180,0.0,0.0,74,0.00,,,0.00,LWC V2.00 B2112,2013-02-20 23:11:00,
2013-02-20 14:16:00,4.2,-1.9,29.45,South,180,0.0,0.0,75,0.00,,,0.00,LWC V2.00 B2112,2013-02-20 23:16:00,
2013-02-20 14:21:00,4.4,-1.7,29.45,South,180,0.0,0.0,75,0.00,,,0.00,LWC V2.00 B2112,2013-02-20 23:21:00,
2013-02-20 14:26:00,4.6,-1.5,29.45,South,180,0.0,0.0,75,0.00,,,0.00,LWC V2.00 B2112,2013-02-20 23:26:00,
2013-02-20 14:31:00,4.9,-1.3,29.45,South,180,0.0,0.0,75,0.00,,,0.00,LWC V2.00 B2112,2013-02-20 23:31:00,
2013-02-20 14:36:00,5.3,-0.9,29.45,South,180,0.0,0.0,75,0.00,,,0.00,LWC V2.00 B2112,2013-02-20 23:36:00,
2013-02-20 14:41:00,5.6,-0.6,29.45,South,180,0.0,0.0,75,0.00,,,0.00,LWC V2.00 B2112,2013-02-20 23:41:00,
2013-02-20 14:46:00,5.6,-0.6,29.45,SW,236,0.0,1.0,75,0.00,,,0.00,LWC V2.00 B2112,2013-02-20 23:46:00,
2013-02-20 14:51:00,5.3,-1.2,29.45,WNW,302,0.0,0.0,74,0.00,,,0.00,LWC V2.00 B2112,2013-02-20 23:51:00,
2013-02-20 14:56:00,5.5,-1.0,29.45,WNW,302,0.0,0.0,74,0.00,,,0.00,LWC V2.00 B2112,2013-02-20 23:56:00,
2013-02-20 15:01:00,5.6,-0.9,29.45,NW,305,0.0,0.0,74,0.00,,,0.00,LWC V2.00 B2112,2013-02-21 00:01:00,
2013-02-20 15:06:00,5.7,-0.8,29.45,NW,305,0.0,1.0,74,0.00,,,0.00,LWC V2.00 B2112,2013-02-21 00:06:00,
2013-02-20 15:11:00,5.7,-1.1,29.45,WNW,300,0.0,2.0,73,0.00,,,0.00,LWC V2.00 B2112,2013-02-21 00:11:00,
2013-02-20 15:16:00,5.6,-1.1,29.45,WNW,295,0.0,2.0,73,0.00,,,0.00,LWC V2.00 B2112,2013-02-21 00:16:00,
2013-02-20 15:21:00,5.5,-1.5,29.45,WNW,296,0.0,0.0,72,0.00,,,0.00,LWC V2.00 B2112,2013-02-21 00:21:00,
2013-02-20 15:26:00,5.5,-1.5,29.45,WNW,296,0.0,0.0,72,0.00,,,0.00,LWC V2.00 B2112,2013-02-21 00:26:00,
2013-02-20 15:31:00,5.5,-1.5,29.45,WNW,296,0.0,0.0,72,0.00,,,0.00,LWC V2.00 B2112,2013-02-21 00:31:00,
2013-02-20 15:36:00,5.6,-1.4,29.45,WNW,295,0.0,0.0,72,0.00,,,0.00,LWC V2.00 B2112,2013-02-21 00:36:00,
2013-02-20 15:41:00,5.8,-1.2,29.45,WNW,296,0.0,2.0,72,0.00,,,0.00,LWC V2.00 B2112,2013-02-21 00:41:00,
2013-02-20 15:46:00,5.7,-1.6,29.45,WNW,296,0.0,0.0,71,0.00,,,0.00,LWC V2.00 B2112,2013-02-21 00:46:00,
2013-02-20 15:51:00,5.6,-1.7,29.45,WNW,295,0.0,0.0,71,0.00,,,0.00,LWC V2.00 B2112,2013-02-21 00:51:00,
2013-02-20 15:56:00,5.7,-1.6,29.45,WNW,295,0.0,0.0,71,0.00,,,0.00,LWC V2.00 B2112,2013-02-21 00:56:00,
2013-02-20 16:01:00,5.8,-1.5,29.45,WNW,296,0.0,0.0,71,0.00,,,0.00,LWC V2.00 B2112,2013-02-21 01:01:00,
2013-02-20 16:06:00,6.0,-1.1,29.45,WNW,296,0.0,0.0,72,0.00,,,0.00,LWC V2.00 B2112,2013-02-21 01:06:00,
2013-02-20 16:11:00,6.2,-0.9,29.44,WNW,295,0.0,0.0,72,0.00,,,0.00,LWC V2.00 B2112,2013-02-21 01:11:00,
2013-02-20 16:16:00,6.4,-0.7,29.44,SE,128,0.0,2.0,72,0.00,,,0.00,LWC V2.00 B2112,2013-02-21 01:16:00,
2013-02-20 16:21:00,6.4,-1.0,29.45,SE,136,0.0,2.0,71,0.00,,,0.00,LWC V2.00 B2112,2013-02-21 01:21:00,
2013-02-20 16:26:00,6.1,-1.5,29.45,SSE,153,0.0,4.0,70,0.00,,,0.00,LWC V2.00 B2112,2013-02-21 01:26:00,
2013-02-20 16:31:00,5.9,-1.7,29.45,SSE,153,0.0,0.0,70,0.00,,,0.00,LWC V2.00 B2112,2013-02-21 01:31:00,
2013-02-20 16:36:00,6.0,-1.6,29.45,SSE,153,0.0,0.0,70,0.00,,,0.00,LWC V2.00 B2112,2013-02-21 01:36:00,
2013-02-20 16:41:00,5.8,-1.8,29.45,SSE,148,0.0,2.0,70,0.00,,,0.00,LWC V2.00 B2112,2013-02-21 01:41:00,
2013-02-20 16:46:00,5.6,-2.0,29.45,SSE,155,1.0,2.0,70,0.00,,,0.00,LWC V2.00 B2112,2013-02-21 01:46:00,
2013-02-20 16:51:00,5.2,-2.4,29.45,SE,145,2.0,3.0,70,0.00,,,0.00,LWC V2.00 B2112,2013-02-21 01:51:00,
2013-02-20 16:56:00,4.9,-2.7,29.45,South,172,1.0,1.0,70,0.00,,,0.00,LWC V2.00 B2112,2013-02-21 01:56:00,
2013-02-20 17:01:00,4.6,-3.0,29.45,SE,129,1.0,1.0,70,0.00,,,0.00,LWC V2.00 B2112,2013-02-21 02:01:00,
2013-02-20 17:06:00,4.3,-3.3,29.45,SSE,155,0.0,0.0,70,0.00,,,0.00,LWC V2.00 B2112,2013-02-21 02:06:00,
2013-02-20 17:11:00,4.3,-3.3,29.45,SE,141,0.0,1.0,70,0.00,,,0.00,LWC V2.00 B2112,2013-02-21 02:11:00,
2013-02-20 17:16:00,4.2,-3.1,29.45,SSE,167,0.0,2.0,71,0.00,,,0.00,LWC V2.00 B2112,2013-02-21 02:16:00,
2013-02-20 17:21:00,4.0,-3.6,29.45,SSE,158,0.0,2.0,70,0.00,,,0.00,LWC V2.00 B2112,2013-02-21 02:21:00,
2013-02-20 17:26:00,4.0,-3.3,29.45,SSE,148,0.0,1.0,71,0.00,,,0.00,LWC V2.00 B2112,2013-02-21 02:26:00,
2013-02-20 17:31:00,3.9,-3.4,29.45,SE,136,0.0,0.0,71,0.00,,,0.00,LWC V2.00 B2112,2013-02-21 02:31:00,
2013-02-20 17:36:00,3.7,-3.6,29.45,SSE,156,1.0,1.0,71,0.00,,,0.00,LWC V2.00 B2112,2013-02-21 02:36:00,
2013-02-20 17:41:00,3.5,-3.8,29.45,SE,146,0.0,2.0,71,0.00,,,0.00,LWC V2.00 B2112,2013-02-21 02:41:00,
2013-02-20 17:46:00,3.4,-3.9,29.45,SE,146,3.0,3.0,71,0.00,,,0.00,LWC V2.00 B2112,2013-02-21 02:46:00,
2013-02-20 17:51:00,3.1,-4.1,29.45,SE,129,2.0,2.0,71,0.00,,,0.00,LWC V2.00 B2112,2013-02-21 02:51:00,
2013-02-20 17:56:00,3.1,-4.1,29.45,South,170,0.0,4.0,71,0.00,,,0.00,LWC V2.00 B2112,2013-02-21 02:56:00,
2013-02-20 18:01:00,2.9,-4.0,29.45,SSE,162,0.0,1.0,72,0.00,,,0.00,LWC V2.00 B2112,2013-02-21 03:01:00,
2013-02-20 18:06:00,2.8,-4.4,29.45,East,91,0.0,2.0,71,0.00,,,0.00,LWC V2.00 B2112,2013-02-21 03:06:00,
2013-02-20 18:11:00,2.8,-4.1,29.45,SE,145,0.0,3.0,72,0.00,,,0.00,LWC V2.00 B2112,2013-02-21 03:11:00,
2013-02-20 18:16:00,2.7,-4.2,29.45,SSE,162,0.0,1.0,72,0.00,,,0.00,LWC V2.00 B2112,2013-02-21 03:16:00,
2013-02-20 18:21:00,2.7,-4.2,29.45,South,170,0.0,1.0,72,0.00,,,0.00,LWC V2.00 B2112,2013-02-21 03:21:00,
2013-02-20 18:26:00,2.7,-4.0,29.45,SE,143,0.0,0.0,73,0.00,,,0.00,LWC V2.00 B2112,2013-02-21 03:26:00,
2013-02-20 18:31:00,2.7,-4.0,29.45,SSE,151,0.0,1.0,73,0.00,,,0.00,LWC V2.00 B2112,2013-02-21 03:31:00,
2013-02-20 18:36:00,2.7,-4.0,29.46,South,169,0.0,2.0,73,0.00,,,0.00,LWC V2.00 B2112,2013-02-21 03:36:00,
2013-02-20 18:41:00,2.7,-4.0,29.46,SW,222,3.0,3.0,73,0.00,,,0.00,LWC V2.00 B2112,2013-02-21 03:41:00,
2013-02-20 18:46:00,2.7,-4.0,29.45,SW,217,0.0,1.0,73,0.00,,,0.00,LWC V2.00 B2112,2013-02-21 03:46:00,
2013-02-20 18:51:00,2.6,-4.0,29.46,SW,217,0.0,0.0,73,0.00,,,0.00,LWC V2.00 B2112,2013-02-21 03:51:00,
2013-02-20 18:56:00,2.6,-4.0,29.46,SSW,212,0.0,0.0,73,0.00,,,0.00,LWC V2.00 B2112,2013-02-21 03:56:00,
2013-02-20 19:01:00,2.4,-4.2,29.46,SSW,213,0.0,0.0,73,0.00,,,0.00,LWC V2.00 B2112,2013-02-21 04:01:00,
2013-02-20 19:06:00,2.3,-4.3,29.46,South,181,0.0,0.0,73,0.00,,,0.00,LWC V2.00 B2112,2013-02-21 04:06:00,
2013-02-20 19:11:00,2.3,-4.3,29.46,South,181,0.0,0.0,73,0.00,,,0.00,LWC V2.00 B2112,2013-02-21 04:11:00,
2013-02-20 19:16:00,2.3,-4.3,29.46,South,181,0.0,0.0,73,0.00,,,0.00,LWC V2.00 B2112,2013-02-21 04:16:00,
2013-02-20 19:21:00,2.2,-4.2,29.46,South,181,0.0,0.0,74,0.00,,,0.00,LWC V2.00 B2112,2013-02-21 04:21:00,
2013-02-20 19:26:00,2.2,-4.2,29.46,SSE,167,0.0,0.0,74,0.00,,,0.00,LWC V2.00 B2112,2013-02-21 04:26:00,
2013-02-20 19:31:00,2.2,-4.2,29.46,South,169,0.0,1.0,74,0.00,,,0.00,LWC V2.00 B2112,2013-02-21 04:31:00,
2013-02-20 19:36:00,2.2,-4.2,29.46,SE,140,0.0,1.0,74,0.00,,,0.00,LWC V2.00 B2112,2013-02-21 04:36:00,
2013-02-20 19:41:00,2.1,-4.2,29.46,SE,139,0.0,0.0,74,0.00,,,0.00,LWC V2.00 B2112,2013-02-21 04:41:00,
2013-02-20 19:46:00,2.0,-4.3,29.46,SE,141,0.0,2.0,74,0.00,,,0.00,LWC V2.00 B2112,2013-02-21 04:46:00,
2013-02-20 19:51:00,2.0,-4.3,29.46,SE,138,0.0,1.0,74,0.00,,,0.00,LWC V2.00 B2112,2013-02-21 04:51:00,
2013-02-20 19:56:00,2.0,-4.3,29.46,SE,139,0.0,0.0,74,0.00,,,0.00,LWC V2.00 B2112,2013-02-21 04:56:00,
2013-02-20 20:00:00,2.0,-4.1,29.46,SE,138,1.0,1.0,75,0.00,,,0.00,LWC V2.00 B2112,2013-02-21 05:00:00,
2013-02-20 20:05:00,1.9,-4.2,29.46,SE,138,0.0,1.0,75,0.00,,,0.00,LWC V2.00 B2112,2013-02-21 05:05:00,
2013-02-20 20:10:00,1.8,-4.3,29.46,SE,139,0.0,1.0,75,0.00,,,0.00,LWC V2.00 B2112,2013-02-21 05:10:00,
2013-02-20 20:15:00,1.8,-4.3,29.46,SE,139,0.0,0.0,75,0.00,,,0.00,LWC V2.00 B2112,2013-02-21 05:15:00,
2013-02-20 20:20:00,1.8,-4.0,29.46,SE,138,0.0,0.0,76,0.00,,,0.00,LWC V2.00 B2112,2013-02-21 05:20:00,
2013-02-20 20:25:00,1.8,-4.0,29.47,SE,139,0.0,0.0,76,0.00,,,0.00,LWC V2.00 B2112,2013-02-21 05:25:00,
2013-02-20 20:30:00,1.8,-4.0,29.46,SE,139,0.0,0.0,76,0.00,,,0.00,LWC V2.00 B2112,2013-02-21 05:30:00,
2013-02-20 20:35:00,1.8,-3.7,29.46,SE,139,0.0,0.0,77,0.00,,,0.00,LWC V2.00 B2112,2013-02-21 05:35:00,
2013-02-20 20:40:00,1.8,-4.0,29.46,SE,139,0.0,0.0,76,0.00,,,0.00,LWC V2.00 B2112,2013-02-21 05:40:00,
2013-02-20 20:45:00,1.9,-3.6,29.46,SE,139,0.0,0.0,77,0.00,,,0.00,LWC V2.00 B2112,2013-02-21 05:45:00,
2013-02-20 20:50:00,1.9,-3.6,29.47,SE,139,0.0,1.0,77,0.00,,,0.00,LWC V2.00 B2112,2013-02-21 05:50:00,
2013-02-20 20:53:00,2.0,-3.5,29.47,SE,139,0.0,0.0,77,0.00,,,0.00,LWC V2.00 B2112,2013-02-21 05:53:00,
2013-02-20 20:58:00,2.0,-3.5,29.47,SE,139,0.0,0.0,77,0.00,,,0.00,LWC V2.00 B2112,2013-02-21 05:58:00,
2013-02-20 21:03:00,2.0,-3.5,29.47,South,181,0.0,0.0,77,0.00,,,0.00,LWC V2.00 B2112,2013-02-21 06:03:00,
2013-02-20 21:08:00,2.1,-3.4,29.47,South,184,0.0,0.0,77,0.00,,,0.00,LWC V2.00 B2112,2013-02-21 06:08:00,
2013-02-20 21:11:00,2.1,-3.4,29.47,South,184,0.0,0.0,77,0.00,,,0.00,LWC V2.00 B2112,2013-02-21 06:11:00,
2013-02-20 21:14:00,2.0,-3.5,29.47,South,184,0.0,0.0,77,0.00,,,0.00,LWC V2.00 B2112,2013-02-21 06:14:00,
2013-02-20 21:19:00,2.0,-3.3,29.47,SSE,155,0.0,1.0,78,0.00,,,0.00,LWC V2.00 B2112,2013-02-21 06:19:00,
2013-02-20 21:24:00,2.0,-3.3,29.47,SSE,155,0.0,0.0,78,0.00,,,0.00,LWC V2.00 B2112,2013-02-21 06:24:00,
2013-02-20 21:29:00,2.0,-3.3,29.47,SSE,155,0.0,0.0,78,0.00,,,0.00,LWC V2.00 B2112,2013-02-21 06:29:00,
2013-02-20 21:34:00,2.0,-3.0,29.47,SSE,155,0.0,0.0,79,0.00,,,0.00,LWC V2.00 B2112,2013-02-21 06:34:00,
2013-02-20 21:39:00,1.9,-3.1,29.47,SSE,155,0.0,0.0,79,0.00,,,0.00,LWC V2.00 B2112,2013-02-21 06:39:00,
2013-02-20 21:44:00,1.9,-3.1,29.48,SSE,155,0.0,1.0,79,0.00,,,0.00,LWC V2.00 B2112,2013-02-21 06:44:00,
2013-02-20 21:49:00,1.9,-2.8,29.48,SSE,157,0.0,1.0,80,0.00,,,0.00,LWC V2.00 B2112,2013-02-21 06:49:00,
2013-02-20 21:54:00,1.8,-2.9,29.48,SSE,157,0.0,1.0,80,0.00,,,0.00,LWC V2.00 B2112,2013-02-21 06:54:00,
2013-02-20 21:59:00,1.8,-2.9,29.48,SSE,157,0.0,0.0,80,0.00,,,0.00,LWC V2.00 B2112,2013-02-21 06:59:00,
2013-02-20 22:04:00,1.8,-2.9,29.48,SSE,156,0.0,0.0,80,0.00,,,0.00,LWC V2.00 B2112,2013-02-21 07:04:00,
2013-02-20 22:09:00,1.8,-2.7,29.48,SSE,156,0.0,1.0,81,0.00,,,0.00,LWC V2.00 B2112,2013-02-21 07:09:00,
2013-02-20 22:14:00,1.8,-2.7,29.48,SSE,157,0.0,0.0,81,0.00,,,0.00,LWC V2.00 B2112,2013-02-21 07:14:00,
2013-02-20 22:19:00,1.8,-2.7,29.48,SE,143,1.0,1.0,81,0.00,,,0.00,LWC V2.00 B2112,2013-02-21 07:19:00,
2013-02-20 22:24:00,1.9,-2.6,29.48,SE,142,0.0,0.0,81,0.00,,,0.00,LWC V2.00 B2112,2013-02-21 07:24:00,
2013-02-20 22:29:00,1.9,-2.3,29.48,SE,143,0.0,0.0,82,0.00,,,0.00,LWC V2.00 B2112,2013-02-21 07:29:00,
2013-02-20 22:34:00,1.9,-2.3,29.48,SE,143,0.0,0.0,82,0.00,,,0.00,LWC V2.00 B2112,2013-02-21 07:34:00,
2013-02-20 22:39:00,1.9,-2.3,29.49,SE,142,0.0,0.0,82,0.00,,,0.00,LWC V2.00 B2112,2013-02-21 07:39:00,
2013-02-20 22:44:00,1.9,-2.3,29.49,SE,142,0.0,0.0,82,0.00,,,0.00,LWC V2.00 B2112,2013-02-21 07:44:00,
2013-02-20 22:49:00,1.9,-2.3,29.49,SE,143,0.0,0.0,82,0.00,,,0.00,LWC V2.00 B2112,2013-02-21 07:49:00,
2013-02-20 22:54:00,1.9,-2.3,29.49,SE,143,0.0,0.0,82,0.00,,,0.00,LWC V2.00 B2112,2013-02-21 07:54:00,
2013-02-20 22:59:00,1.9,-2.0,29.49,SE,142,0.0,0.0,83,0.00,,,0.00,LWC V2.00 B2112,2013-02-21 07:59:00,
2013-02-20 23:04:00,1.9,-2.0,29.49,SE,143,0.0,0.0,83,0.00,,,0.00,LWC V2.00 B2112,2013-02-21 08:04:00,
2013-02-20 23:09:00,1.9,-2.0,29.49,SE,143,0.0,0.0,83,0.00,,,0.00,LWC V2.00 B2112,2013-02-21 08:09:00,
2013-02-20 23:14:00,2.0,-2.0,29.49,SE,142,0.0,0.0,83,0.00,,,0.00,LWC V2.00 B2112,2013-02-21 08:14:00,
2013-02-20 23:19:00,2.0,-2.0,29.49,SE,142,0.0,0.0,83,0.00,,,0.00,LWC V2.00 B2112,2013-02-21 08:19:00,
2013-02-20 23:24:00,2.1,-1.9,29.49,SE,143,0.0,0.0,83,0.00,,,0.00,LWC V2.00 B2112,2013-02-21 08:24:00,
2013-02-20 23:29:00,2.1,-1.6,29.49,SE,143,0.0,0.0,84,0.00,,,0.00,LWC V2.00 B2112,2013-02-21 08:29:00,
2013-02-20 23:34:00,2.1,-1.6,29.49,SE,142,0.0,0.0,84,0.00,,,0.00,LWC V2.00 B2112,2013-02-21 08:34:00,
2013-02-20 23:39:00,2.1,-1.6,29.49,SE,142,0.0,0.0,84,0.00,,,0.00,LWC V2.00 B2112,2013-02-21 08:39:00,
2013-02-20 23:44:00,2.1,-1.6,29.49,SE,143,0.0,0.0,84,0.00,,,0.00,LWC V2.00 B2112,2013-02-21 08:44:00,
2013-02-20 23:49:00,2.1,-1.6,29.49,SE,142,0.0,0.0,84,0.00,,,0.00,LWC V2.00 B2112,2013-02-21 08:49:00,
2013-02-20 23:54:00,2.1,-1.6,29.49,SE,142,0.0,0.0,84,0.00,,,0.00,LWC V2.00 B2112,2013-02-21 08:54:00,
2013-02-20 23:59:00,2.1,-1.6,29.49,SE,143,0.0,1.0,84,0.00,,,0.00,LWC V2.00 B2112,2013-02-21 08:59:00,